Location: Garshuizen
(53.3675°N, 6.7248°E)
Time: 11:19:06
(UTC+00:00)

Cosmos 1833 - Pass Details

Date: 15 May 2026
Orbit: 833 x 865 km, 70.9° (Epoch: 6 June)

Event Time Altitude Azimuth Distance (km) Brightness Sun altitude
Exits shadow 21:44:11 - 200° (SSW) 2,581 6.3 -14.1°
Reaches altitude 10° 21:44:30 10° 200° (SSW) 2,458 6.2 -14.1°
Maximum altitude 21:50:06 71° 118° (ESE) 887 4.1 -14.5°
Drops below altitude 10° 21:55:43 10° 35° (NE) 2,457 7.0 -14.8°
Sets 21:58:10 0° 33° (NNE) 3,393 7.8 -15.0°
